Overview Statistics Trail Chart Weather Telemetry Raw packets
 

This is the latest recevied weather packets stored in our database for station/object S57PNX-8. If no packets are shown the sender has not sent any weather packets the latest 10 day(s).

<< 6 7 8 9 10 11 12 >>
Time Temp. Humidity Pressure Rain* Wind** Luminosity Snow
1788546715 22.78° C 53% 1025.5 hPa - - - -
1788545816 23.33° C 51% 1025.5 hPa - - - -
1788544917 23.89° C 49% 1025.5 hPa - - - -
1788544018 25° C 45% 1025.4 hPa - - - -
1788543119 26.11° C 42% 1025.4 hPa - - - -
1788542220 27.22° C 40% 1025.4 hPa - - - -
1788541343 29.44° C 37% 1025.5 hPa - - - -
1788540422 31.11° C 34% 1025.5 hPa - - - -
1788539523 32.22° C 32% 1025.6 hPa - - - -
1788538624 34.44° C 30% 1025.7 hPa - - - -
1788537724 35° C 29% 1025.7 hPa - - - -
1788536825 34.44° C 30% 1025.8 hPa - - - -
1788535926 34.44° C 32% 1026 hPa - - - -
1788535026 28.89° C 40% 1026.1 hPa - - - -
1788534127 28.33° C 41% 1026.1 hPa - - - -
1788533228 27.22° C 41% 1026.3 hPa - - - -
1788532329 26.67° C 42% 1026.3 hPa - - - -
1788531430 26.67° C 42% 1026.3 hPa - - - -
1788530537 26.67° C 42% 1026.4 hPa - - - -
1788529632 26.11° C 43% 1026.5 hPa - - - -
1788528796 26.11° C 44% 1026.5 hPa - - - -
1788528729 26.11° C 44% 1026.5 hPa - - - -
1788528239 26.11° C 44% 1026.7 hPa - - - -
1788527332 26.11° C 45% 1026.8 hPa - - - -
1788526433 25.56° C 46% 1026.9 hPa - - - -

* Rain since midnight (hover to see other rain measurements)
** Current wind speed in m/s (hover to see current wind gust speed)